Location: Unspecified
(0.0000°N, 0.0000°E)
Time: 09:07:38
(UTC+00:00)

Vanguard 1 - Pass Details

Date: 22 December 2018
Orbit: 651 x 3832 km, 34.2° (Epoch: 22 March)

Event Time Altitude Azimuth Distance (km) Brightness Sun altitude
Rises 21:39:13 0° 223° (SW) 7,704 15.3 -48.8°
Reaches altitude 10° 21:46:04 10° 214° (SW) 6,313 14.6 -50.2°
Maximum altitude 22:01:22 31° 159° (SSE) 3,548 12.8 -53.1°
Enters shadow 22:01:34 31° 157° (SSE) 3,530 12.8 -53.1°
